Cloquet, MN

2:59 PM CST on December 15, 2019 (GMT -0600)
Cloquet Carlton County

Weather History for KCOQ - October, 2019

Change the Weather History Date:

Monday, October 21, 2019

  Actual Average Record
Temperature  
Mean Temperature 46 °F -  
Max Temperature 48 °F 48 °F 64 °F (1999)
Min Temperature 44 °F 33 °F 23 °F (2008)
Degree Days  
Heating Degree Days 19    
Moisture  
Dew Point 41 °F    
Average Humidity 83    
Maximum Humidity 93    
Minimum Humidity 57    
Precipitation  
Precipitation 0.10 in - - ()
Sea Level Pressure  
Sea Level Pressure 29.46 in    
Wind  
Wind Speed 12 mph ()    
Max Wind Speed 30 mph    
Max Gust Speed 46 mph    
Visibility 8.2 miles    
Events Rain    
Averages and records for this station are not official NWS values.
T = Trace of Precipitation, MM = Missing Value Source: Averaged Metar Reports

Daily Weather History Graph

Daily Weather History Graph

Search for Another Location

Airport or City:

Astronomy

Oct. 21, 2019 Rise Set
Actual Time 7:35 AM CDT 6:12 PM CDT
Civil Twilight 7:05 AM CDT 6:43 PM CDT
Nautical Twilight 6:29 AM CDT 7:18 PM CDT
Astronomical Twilight 5:54 AM CDT 7:53 PM CDT
Moon No Moon Rise 3:07 PM CDT (10/21)
Length of Visible Light 11h 38m
Length of Day
10h 36m
Waning Gibbous, 48% of the Moon is Illuminated
Oct 21
Waning Gibbous
Oct 27
New
Nov 4
First Quarter
Nov 12
Full
Nov 19
Last Quarter

Hourly Weather History & Observations

Time (CDT) Temp. Windchill Dew Point Humidity Pressure Visibility Wind Dir Wind Speed Gust Speed Precip Events Conditions
12:15 AM 48.2 °F - 37.4 °F 66% 29.85 in 10.0 mi ENE 9.2 mph - N/A   Overcast
12:35 AM 48.2 °F - 37.4 °F 66% 29.84 in 10.0 mi ENE 8.1 mph - N/A   Scattered Clouds
12:36 AM 48.2 °F - 37.4 °F 66% 29.84 in 10.0 mi ENE 8.1 mph - N/A   Scattered Clouds
12:55 AM 48.2 °F - 37.4 °F 66% 29.84 in 10.0 mi ENE 8.1 mph - N/A   Clear
1:15 AM 48.2 °F - 37.4 °F 66% 29.84 in 10.0 mi East 5.8 mph - N/A   Scattered Clouds
1:35 AM 48.2 °F - 37.4 °F 66% 29.84 in 10.0 mi East 6.9 mph - N/A   Scattered Clouds
1:36 AM 48.2 °F - 37.4 °F 66% 29.84 in 10.0 mi East 6.9 mph - N/A   Scattered Clouds
1:55 AM 48.2 °F - 37.4 °F 66% 29.82 in 10.0 mi East 6.9 mph - N/A   Clear
1:56 AM 46.4 °F 42.4 °F 37.4 °F 71% 29.82 in 10.0 mi East 8.1 mph - N/A   Clear
2:15 AM 46.4 °F 42.4 °F 37.4 °F 71% 29.81 in 10.0 mi East 8.1 mph - N/A   Clear
2:16 AM 46.4 °F 41.9 °F 37.4 °F 71% 29.81 in 10.0 mi East 9.2 mph - N/A   Clear
2:35 AM 46.4 °F 41.1 °F 37.4 °F 71% 29.77 in 10.0 mi ENE 11.5 mph 16.1 mph N/A   Clear
2:55 AM 46.4 °F 42.4 °F 37.4 °F 71% 29.79 in 10.0 mi East 8.1 mph - N/A   Clear
3:15 AM 46.4 °F 42.9 °F 37.4 °F 71% 29.79 in 10.0 mi East 6.9 mph - N/A   Clear
3:35 AM 46.4 °F 41.1 °F 37.4 °F 71% 29.78 in 10.0 mi East 11.5 mph - N/A   Clear
3:55 AM 46.4 °F 41.5 °F 37.4 °F 71% 29.78 in 10.0 mi East 10.4 mph - N/A   Clear
3:56 AM 46.4 °F 41.9 °F 37.4 °F 71% 29.78 in 10.0 mi East 9.2 mph - N/A   Clear
4:15 AM 46.4 °F 40.7 °F 39.2 °F 76% 29.77 in 10.0 mi East 12.7 mph 18.4 mph N/A   Clear
4:35 AM 44.6 °F 38.8 °F 39.2 °F 81% 29.77 in 10.0 mi East 11.5 mph 19.6 mph N/A   Clear
4:36 AM 44.6 °F 38.8 °F 39.2 °F 81% 29.77 in 10.0 mi East 11.5 mph 19.6 mph N/A   Clear
4:55 AM 44.6 °F 38.1 °F 39.2 °F 81% 29.74 in 10.0 mi East 13.8 mph 19.6 mph N/A   Scattered Clouds
5:15 AM 44.6 °F 38.8 °F 39.2 °F 81% 29.73 in 10.0 mi East 11.5 mph 18.4 mph N/A   Scattered Clouds
5:35 AM 44.6 °F 39.2 °F 39.2 °F 81% 29.73 in 10.0 mi East 10.4 mph 18.4 mph N/A   Clear
5:36 AM 44.6 °F 39.2 °F 39.2 °F 81% 29.73 in 10.0 mi East 10.4 mph 18.4 mph N/A   Clear
5:55 AM 44.6 °F 38.8 °F 39.2 °F 81% 29.71 in 10.0 mi ENE 11.5 mph 17.3 mph N/A   Clear
6:15 AM 46.4 °F 41.9 °F 39.2 °F 76% 29.71 in 10.0 mi East 9.2 mph 17.3 mph N/A   Clear
6:16 AM 46.4 °F 41.5 °F 39.2 °F 76% 29.71 in 10.0 mi East 10.4 mph 17.3 mph N/A   Clear
6:35 AM 46.4 °F 41.5 °F 37.4 °F 71% 29.71 in 10.0 mi East 10.4 mph 17.3 mph N/A   Clear
6:55 AM 46.4 °F 40.7 °F 37.4 °F 71% 29.69 in 10.0 mi ENE 12.7 mph - N/A   Scattered Clouds
6:56 AM 46.4 °F 40.7 °F 37.4 °F 71% 29.69 in 10.0 mi ENE 12.7 mph 19.6 mph N/A   Scattered Clouds
7:15 AM 46.4 °F 41.1 °F 37.4 °F 71% 29.67 in 10.0 mi ENE 11.5 mph 19.6 mph N/A   Scattered Clouds
7:16 AM 46.4 °F 40.4 °F 37.4 °F 71% 29.67 in 10.0 mi ENE 13.8 mph 21.9 mph N/A   Scattered Clouds
7:35 AM 46.4 °F 40.7 °F 37.4 °F 71% 29.65 in 10.0 mi ENE 12.7 mph 18.4 mph N/A   Mostly Cloudy
7:55 AM 46.4 °F 41.1 °F 37.4 °F 71% 29.64 in 10.0 mi ENE 11.5 mph 18.4 mph N/A   Mostly Cloudy
7:56 AM 46.4 °F 41.1 °F 37.4 °F 71% 29.64 in 10.0 mi ENE 11.5 mph 18.4 mph N/A   Mostly Cloudy
8:15 AM 46.4 °F 40.7 °F 37.4 °F 71% 29.63 in 10.0 mi ENE 12.7 mph 18.4 mph N/A   Overcast
8:16 AM 46.4 °F 40.4 °F 37.4 °F 71% 29.63 in 10.0 mi ENE 13.8 mph 18.4 mph N/A   Overcast
8:35 AM 46.4 °F 40.7 °F 35.6 °F 66% 29.61 in 10.0 mi NE 12.7 mph 23.0 mph N/A   Mostly Cloudy
8:55 AM 46.4 °F 40.1 °F 35.6 °F 66% 29.59 in 10.0 mi NE 15.0 mph 23.0 mph N/A   Scattered Clouds
9:15 AM 46.4 °F 40.1 °F 35.6 °F 66% 29.58 in 10.0 mi ENE 15.0 mph 20.7 mph N/A   Scattered Clouds
9:35 AM 46.4 °F 39.5 °F 37.4 °F 71% 29.57 in 10.0 mi ENE 17.3 mph 24.2 mph N/A   Clear
9:36 AM 46.4 °F 39.5 °F 37.4 °F 71% 29.57 in 10.0 mi NE 17.3 mph 24.2 mph N/A   Clear
9:55 AM 46.4 °F 40.1 °F 37.4 °F 71% 29.56 in 10.0 mi ENE 15.0 mph 27.6 mph N/A   Scattered Clouds
9:56 AM 46.4 °F 39.8 °F 37.4 °F 71% 29.56 in 10.0 mi ENE 16.1 mph 27.6 mph N/A   Scattered Clouds
10:15 AM 46.4 °F 41.5 °F 39.2 °F 76% 29.55 in 10.0 mi ENE 10.4 mph 19.6 mph N/A Rain Light Rain
10:16 AM 46.4 °F 40.4 °F 39.2 °F 76% 29.56 in 10.0 mi ENE 13.8 mph 21.9 mph N/A Rain Light Rain
10:35 AM 46.4 °F 40.4 °F 39.2 °F 76% 29.55 in 7.0 mi ENE 13.8 mph 21.9 mph 0.01 in Rain Rain
10:55 AM 44.6 °F 37.8 °F 41.0 °F 87% 29.53 in 7.0 mi ENE 15.0 mph 20.7 mph N/A Rain Rain
10:56 AM 44.6 °F 37.8 °F 41.0 °F 87% 29.53 in 7.0 mi ENE 15.0 mph 20.7 mph N/A Rain Rain
11:15 AM 46.4 °F 39.0 °F 42.8 °F 87% 29.50 in 7.0 mi NE 19.6 mph 26.5 mph 0.01 in Rain Heavy Rain
11:35 AM 46.4 °F 39.5 °F 42.8 °F 87% 29.47 in 7.0 mi NE 17.3 mph 29.9 mph N/A Rain Rain
11:36 AM 46.4 °F 39.5 °F 42.8 °F 87% 29.47 in 7.0 mi NE 17.3 mph 29.9 mph 0.01 in Rain Rain
11:55 AM 46.4 °F 39.5 °F 42.8 °F 87% 29.45 in 7.0 mi ENE 17.3 mph 27.6 mph 0.01 in Rain Rain
11:56 AM 46.4 °F 39.2 °F 42.8 °F 87% 29.45 in 7.0 mi ENE 18.4 mph 27.6 mph N/A Rain Heavy Rain
12:15 PM 46.4 °F 38.3 °F 42.8 °F 87% 29.41 in 10.0 mi NE 23.0 mph 32.2 mph 0.01 in Rain Rain
12:35 PM 46.4 °F 38.7 °F 42.8 °F 87% 29.40 in 7.0 mi NE 20.7 mph 32.2 mph N/A Rain Rain
12:55 PM 46.4 °F 38.7 °F 42.8 °F 87% 29.37 in 7.0 mi ENE 20.7 mph 33.4 mph N/A Rain Rain
1:15 PM 44.6 °F 36.1 °F 42.8 °F 93% 29.34 in 5.0 mi ENE 21.9 mph 34.5 mph N/A Rain Rain
1:16 PM 44.6 °F 36.4 °F 42.8 °F 93% 29.33 in 7.0 mi ENE 20.7 mph 34.5 mph 0.01 in Rain Light Rain
1:35 PM 44.6 °F 35.5 °F 42.8 °F 93% 29.31 in 5.0 mi ENE 25.3 mph 38.0 mph 0.01 in Rain Rain
1:36 PM 44.6 °F 35.1 °F 42.8 °F 93% 29.31 in 4.0 mi ENE 27.6 mph 41.4 mph N/A Rain Rain
1:55 PM 44.6 °F 35.1 °F 42.8 °F 93% 29.29 in 3.0 mi ENE 27.6 mph 38.0 mph 0.01 in Rain Rain
1:56 PM 44.6 °F 35.5 °F 42.8 °F 93% 29.29 in 2.5 mi ENE 25.3 mph 38.0 mph N/A Rain Rain
2:15 PM 44.6 °F 35.3 °F 42.8 °F 93% 29.27 in 7.0 mi ENE 26.5 mph 38.0 mph 0.01 in Rain Rain
2:16 PM 44.6 °F 35.5 °F 42.8 °F 93% 29.26 in 5.0 mi ENE 25.3 mph 38.0 mph N/A Rain Rain
2:35 PM 46.4 °F 37.4 °F 44.6 °F 93% 29.25 in 4.0 mi ENE 28.8 mph 39.1 mph 0.01 in Rain Rain
2:36 PM 46.4 °F 37.2 °F 44.6 °F 93% 29.25 in 4.0 mi ENE 29.9 mph 39.1 mph 0.01 in Rain Rain
2:55 PM 44.6 °F 35.7 °F 42.8 °F 93% 29.23 in 5.0 mi ENE 24.2 mph 40.3 mph N/A Rain Rain
2:56 PM 44.6 °F 35.9 °F 42.8 °F 93% 29.23 in 5.0 mi ENE 23.0 mph 40.3 mph N/A Rain Rain
3:15 PM 46.4 °F 37.7 °F 44.6 °F 93% 29.21 in 5.0 mi NE 26.5 mph 35.7 mph 0.01 in Rain Light Rain
3:16 PM 46.4 °F 37.4 °F 44.6 °F 93% 29.22 in 5.0 mi NE 28.8 mph 35.7 mph 0.01 in Rain Rain
3:35 PM 46.4 °F 38.5 °F 44.6 °F 93% 29.21 in 7.0 mi ENE 21.9 mph 36.8 mph N/A Rain Rain
3:55 PM 46.4 °F 38.1 °F 44.6 °F 93% 29.20 in 10.0 mi NE 24.2 mph 39.1 mph 0.01 in Rain Light Rain
4:15 PM 46.4 °F 38.5 °F 44.6 °F 93% 29.20 in 7.0 mi ENE 21.9 mph 46.0 mph 0.01 in Rain Light Rain
4:16 PM 46.4 °F 39.2 °F 44.6 °F 93% 29.20 in 7.0 mi ENE 18.4 mph 46.0 mph 0.01 in Rain Light Rain
4:35 PM 46.4 °F 38.1 °F 44.6 °F 93% 29.19 in 4.0 mi ENE 24.2 mph 41.4 mph 0.01 in Rain Rain
4:55 PM 46.4 °F 38.1 °F 44.6 °F 93% 29.19 in 5.0 mi ENE 24.2 mph 41.4 mph 0.01 in Rain Light Rain
5:15 PM 46.4 °F 38.3 °F 44.6 °F 93% 29.18 in 7.0 mi ENE 23.0 mph 40.3 mph N/A Rain Light Rain
5:35 PM 46.4 °F 38.3 °F 44.6 °F 93% 29.18 in 7.0 mi ENE 23.0 mph 38.0 mph 0.01 in Rain Light Rain
5:55 PM 46.4 °F 38.5 °F 44.6 °F 93% 29.18 in 7.0 mi ENE 21.9 mph 31.1 mph 0.01 in Rain Light Rain
6:15 PM 46.4 °F 38.7 °F 44.6 °F 93% 29.18 in 10.0 mi ENE 20.7 mph 31.1 mph N/A Rain Light Rain
6:35 PM 46.4 °F 38.7 °F 44.6 °F 93% 29.18 in 10.0 mi ENE 20.7 mph 27.6 mph N/A   Overcast
6:55 PM 46.4 °F 40.7 °F 44.6 °F 93% 29.19 in 10.0 mi ENE 12.7 mph 19.6 mph N/A   Light Drizzle
7:15 PM 46.4 °F 41.1 °F 44.6 °F 93% 29.19 in 10.0 mi ENE 11.5 mph 16.1 mph N/A Rain Light Rain
7:16 PM 46.4 °F 41.5 °F 44.6 °F 93% 29.19 in 10.0 mi ENE 10.4 mph 16.1 mph N/A Rain Light Rain
7:35 PM 46.4 °F 41.9 °F 44.6 °F 93% 29.19 in 5.0 mi ENE 9.2 mph - 0.01 in Rain Rain
7:55 PM 46.4 °F 42.9 °F 44.6 °F 93% 29.19 in 10.0 mi ENE 6.9 mph - 0.01 in   Overcast
8:15 PM 46.4 °F 42.4 °F 44.6 °F 93% 29.19 in 10.0 mi NE 8.1 mph - N/A   Overcast
8:16 PM 46.4 °F 42.4 °F 44.6 °F 93% 29.19 in 10.0 mi NE 8.1 mph - N/A   Overcast
8:35 PM 46.4 °F 42.4 °F 44.6 °F 93% 29.18 in 7.0 mi ENE 8.1 mph - N/A   Overcast
8:55 PM 46.4 °F 42.9 °F 44.6 °F 93% 29.17 in 7.0 mi NE 6.9 mph - N/A   Overcast
9:15 PM 46.4 °F 42.9 °F 44.6 °F 93% 29.18 in 7.0 mi ENE 6.9 mph - N/A   Overcast
9:35 PM 46.4 °F 45.2 °F 44.6 °F 93% 29.18 in 5.0 mi ENE 3.5 mph - N/A   Overcast
9:55 PM 46.4 °F - 44.6 °F 93% 29.19 in 3.0 mi Calm Calm - N/A Rain Light Rain
10:15 PM 46.4 °F - 44.6 °F 93% 29.19 in 5.0 mi Calm Calm - N/A   Drizzle
10:35 PM 46.4 °F - 44.6 °F 93% 29.19 in 7.0 mi Calm Calm - N/A   Drizzle
10:36 PM 46.4 °F - 44.6 °F 93% 29.19 in 7.0 mi Calm Calm - N/A   Drizzle
10:55 PM 46.4 °F - 44.6 °F 93% 29.19 in 10.0 mi Calm Calm - N/A   Overcast
11:15 PM 46.4 °F - 44.6 °F 93% 29.19 in 7.0 mi Calm Calm - N/A   Drizzle
11:16 PM 46.4 °F - 44.6 °F 93% 29.19 in 7.0 mi Calm Calm - N/A   Drizzle
11:35 PM 46.4 °F - 44.6 °F 93% 29.18 in 5.0 mi Calm Calm - N/A   Heavy Drizzle
11:36 PM 46.4 °F - 44.6 °F 93% 29.18 in 5.0 mi Calm Calm - N/A   Heavy Drizzle
11:55 PM 46.4 °F 44.3 °F 44.6 °F 93% 29.18 in 7.0 mi WNW 4.6 mph - 0.01 in Rain Heavy Rain
11:56 PM 46.4 °F 43.5 °F 32.0 °F 57% 29.18 in 7.0 mi WNW 5.8 mph - N/A Rain Heavy Rain